KT2UU-13 Weather Reports


time (UTC)temp
C
wind
direction
speed
KPH
gust
KPH
rain 1hr
cm
rain 24hr
cm
rain mn
cm
humidity
%
barometer
mb
20260503185256 19 110 1.6 3.2 0.00 0.00 0.00 45 1020.4
20260503184756 18 283 1.6 4.8 0.00 0.00 0.00 46 1020.4
20260503184253 18 185 3.2 4.8 0.00 0.00 0.00 44 1020.7
20260503183748 18 160 6.4 11.3 0.00 0.00 0.00 48 1020.8
20260503183246 17 192 3.2 3.2 0.00 0.00 0.00 49 1020.6
20260503182744 18 146 1.6 1.6 0.00 0.00 0.00 52 1020.7
20260503182243 17 188 1.6 4.8 0.00 0.00 0.00 51 1020.7
20260503181739 17 139 4.8 4.8 0.00 0.00 0.00 50 1020.8
20260503181236 17 191 3.2 6.4 0.00 0.00 0.00 49 1021.0
20260503180732 17 356 3.2 6.4 0.00 0.00 0.00 46 1021.1
20260503180231 17 115 4.8 11.3 0.00 0.00 0.00 49 1020.9
20260503175727 17 198 1.6 6.4 0.00 0.00 0.00 46 1021.1
20260503175225 17 288 0.0 6.4 0.00 0.00 0.00 45 1021.4
20260503174721 17 247 3.2 11.3 0.00 0.00 0.00 44 1021.1
20260503174219 17 206 3.2 3.2 0.00 0.00 0.00 46 1021.2
20260503173714 17 176 0.0 6.4 0.00 0.00 0.00 48 1021.0
20260503173210 17 288 6.4 9.7 0.00 0.00 0.00 46 1020.9
20260503172707 16 254 1.6 4.8 0.00 0.00 0.00 48 1021.3
20260503172204 16 220 4.8 12.9 0.00 0.00 0.00 46 1021.4
20260503171700 16 359 1.6 3.2 0.00 0.00 0.00 48 1021.3
20260503171158 16 157 3.2 4.8 0.00 0.00 0.00 47 1021.6
20260503170655 16 271 1.6 4.8 0.00 0.00 0.00 48 1021.7
20260503170151 16 199 4.8 11.3 0.00 0.00 0.00 47 1021.7
20260503160113 15 139 0.0 0.0 0.00 0.00 0.00 58 1022.3
20260503150543 14 350 3.2 4.8 0.00 0.00 0.00 62 1022.5
20260503130933 12 239 1.6 3.2 0.00 0.00 0.00 77 1021.8
20260503130431 12 237 0.0 1.6 0.00 0.00 0.00 75 1021.7
20260503110824 4 343 0.0 0.0 0.00 0.00 0.00 97 1020.9
20260503110320 4 343 0.0 0.0 0.00 0.00 0.00 97 1020.6
20260503100247 5 343 0.0 0.0 0.00 0.00 0.00 95 1020.3
20260503090206 6 237 0.0 0.0 0.00 0.00 0.00 91 1019.6
20260503081138 6 278 0.0 0.0 0.00 0.00 0.00 90 1019.4
20260503080634 6 282 0.0 0.0 0.00 0.00 0.00 89 1019.2
20260503080131 7 258 0.0 0.0 0.00 0.00 0.00 89 1019.1
20260503072608 8 342 0.0 1.6 0.00 0.00 0.00 83 1019.0
20260503072106 8 218 0.0 0.0 0.00 0.00 0.00 83 1018.9
20260503071602 7 251 0.0 1.6 0.00 0.00 0.00 83 1018.9
20260503071059 7 243 0.0 0.0 0.00 0.00 0.00 85 1018.8
20260503070555 7 243 0.0 0.0 0.00 0.00 0.00 85 1018.9
20260503055014 8 248 0.0 0.0 0.00 0.00 0.00 82 1018.9
20260503054510 8 248 0.0 0.0 0.00 0.00 0.00 81 1018.9
20260503054008 8 248 0.0 0.0 0.00 0.00 0.00 81 1018.9
20260503053506 8 248 0.0 0.0 0.00 0.00 0.00 80 1018.8
20260503053002 8 248 0.0 0.0 0.00 0.00 0.00 80 1018.8
20260503052500 8 248 0.0 0.0 0.00 0.00 0.00 79 1019.0
20260503051956 8 247 0.0 0.0 0.00 0.00 0.00 79 1018.8
20260503051452 9 248 0.0 0.0 0.00 0.00 0.00 77 1018.8
20260503050949 9 248 0.0 0.0 0.00 0.00 0.00 74 1018.9
20260503050445 9 248 0.0 0.0 0.00 0.00 0.00 73 1019.0
20260503045943 10 248 0.0 0.0 0.00 0.00 0.00 73 1019.0
20260503045440 10 248 0.0 0.0 0.00 0.00 0.00 72 1018.8
20260503044936 10 248 0.0 0.0 0.00 0.00 0.00 69 1018.7
20260503044433 10 248 0.0 0.0 0.00 0.00 0.00 68 1018.7
20260503043931 11 248 0.0 0.0 0.00 0.00 0.00 67 1018.6
20260503043427 11 248 0.0 0.0 0.00 0.00 0.00 66 1018.7
20260503042924 11 248 0.0 1.6 0.00 0.00 0.00 64 1018.8
20260503042421 11 255 1.6 3.2 0.00 0.00 0.00 64 1018.7
20260503041917 11 253 0.0 4.8 0.00 0.00 0.00 63 1018.7
20260503041414 12 183 0.0 4.8 0.00 0.00 0.00 62 1018.9
20260503040911 12 213 3.2 4.8 0.00 0.00 0.00 61 1018.5
20260503040409 12 256 6.4 6.4 0.00 0.00 0.00 61 1018.5
20260503035906 12 242 1.6 4.8 0.00 0.00 0.00 62 1018.6
20260503035402 12 202 4.8 6.4 0.00 0.00 0.00 61 1018.3
20260503034900 12 236 1.6 3.2 0.00 0.00 0.00 62 1018.5
20260503034357 11 238 3.2 4.8 0.00 0.00 0.00 62 1018.3
20260503033854 11 189 0.0 0.0 0.00 0.00 0.00 67 1018.4
20260503033352 11 189 0.0 0.0 0.00 0.00 0.00 66 1018.2
20260503032849 11 189 0.0 0.0 0.00 0.00 0.00 65 1018.4
20260503032348 11 189 0.0 0.0 0.00 0.00 0.00 66 1018.3
20260503031845 11 189 0.0 0.0 0.00 0.00 0.00 65 1018.2
20260503031343 11 189 0.0 0.0 0.00 0.00 0.00 72 1018.2
20260503030839 11 189 0.0 0.0 0.00 0.00 0.00 70 1018.3
20260503030336 11 189 0.0 0.0 0.00 0.00 0.00 65 1018.1
20260503025832 11 189 0.0 0.0 0.00 0.00 0.00 67 1018.3
20260503025330 11 189 0.0 0.0 0.00 0.00 0.00 68 1018.1
20260503024827 11 189 0.0 0.0 0.00 0.00 0.00 65 1018.0
20260503024323 11 189 0.0 0.0 0.00 0.00 0.00 70 1018.1
20260503023820 11 189 0.0 0.0 0.00 0.00 0.00 69 1017.9
20260503023318 11 189 0.0 0.0 0.00 0.00 0.00 69 1017.7
20260503022814 11 189 0.0 0.0 0.00 0.00 0.00 66 1017.6
20260503022309 11 189 0.0 0.0 0.00 0.00 0.00 67 1017.4
20260503021806 11 189 0.0 0.0 0.00 0.00 0.00 70 1017.5
20260503021302 11 189 0.0 0.0 0.00 0.00 0.00 62 1017.2
20260503020800 11 189 1.6 1.6 0.00 0.00 0.00 60 1017.4
20260503020257 11 237 0.0 0.0 0.00 0.00 0.00 67 1017.1
20260503015753 11 237 0.0 0.0 0.00 0.00 0.00 61 1017.0
20260503015250 11 237 0.0 0.0 0.00 0.00 0.00 65 1017.0
20260503014746 11 237 0.0 0.0 0.00 0.00 0.00 66 1016.8
20260503014244 11 237 0.0 0.0 0.00 0.00 0.00 68 1016.8
20260503013741 11 237 0.0 0.0 0.00 0.00 0.00 68 1016.9
20260503013239 11 237 0.0 0.0 0.00 0.00 0.00 67 1016.8
20260503012736 12 237 0.0 0.0 0.00 0.00 0.00 64 1016.6
20260503012233 12 237 0.0 0.0 0.00 0.00 0.00 64 1016.6
20260503011729 12 237 0.0 0.0 0.00 0.00 0.00 61 1016.5
20260503011227 12 237 0.0 0.0 0.00 0.00 0.00 60 1016.5
20260503010722 12 237 0.0 0.0 0.00 0.00 0.00 60 1016.4
20260503010220 12 237 0.0 0.0 0.00 0.00 0.00 59 1016.4
20260503005717 13 237 0.0 0.0 0.00 0.00 0.00 57 1016.6
20260503005214 13 237 0.0 0.0 0.00 0.00 0.00 56 1016.3
20260503004710 13 237 0.0 0.0 0.00 0.00 0.00 54 1016.3
20260503004209 14 217 0.0 0.0 0.00 0.00 0.00 51 1016.4
20260503003706 15 237 0.0 0.0 0.00 0.00 0.00 49 1016.3
20260503003202 15 237 0.0 1.6 0.00 0.00 0.00 48 1016.3
20260503002659 15 220 0.0 1.6 0.00 0.00 0.00 47 1016.2
20260503002156 15 242 0.0 0.0 0.00 0.00 0.00 47 1015.9
20260503001652 15 221 0.0 0.0 0.00 0.00 0.00 46 1016.1
20260503001149 16 242 0.0 0.0 0.00 0.00 0.00 45 1016.0
20260503000647 16 242 0.0 0.0 0.00 0.00 0.00 43 1015.9
20260503000143 16 221 0.0 0.0 0.00 0.00 0.00 42 1015.8
20260502235640 17 252 0.0 0.0 0.00 0.00 0.00 41 1015.7
20260502235138 17 252 1.6 3.2 0.00 0.00 0.00 39 1015.8
20260502234633 17 255 3.2 4.8 0.00 0.00 0.00 39 1015.6
20260502234131 17 197 0.0 6.4 0.00 0.00 0.00 38 1015.6
20260502233627 18 239 3.2 4.8 0.00 0.00 0.00 37 1015.5
20260502233124 18 183 3.2 6.4 0.00 0.00 0.00 36 1015.6
20260502232620 18 213 4.8 11.3 0.00 0.00 0.00 35 1015.7
20260502232118 18 200 6.4 11.3 0.00 0.00 0.00 35 1015.5
20260502231614 18 212 1.6 11.3 0.00 0.00 0.00 35 1015.5
20260502231112 18 190 6.4 9.7 0.00 0.00 0.00 36 1015.5
20260502230610 18 171 4.8 4.8 0.00 0.00 0.00 34 1015.5
20260502230108 18 253 3.2 11.3 0.00 0.00 0.00 35 1015.7
20260502225603 18 140 3.2 16.1 0.00 0.00 0.00 35 1015.6
20260502225101 19 282 6.4 11.3 0.00 0.00 0.00 35 1015.5
20260502224556 18 257 1.6 6.4 0.00 0.00 0.00 37 1015.6
20260502224054 18 289 3.2 3.2 0.00 0.00 0.00 38 1015.5
20260502223551 18 300 4.8 9.7 0.00 0.00 0.00 36 1015.5
20260502223050 20 210 4.8 12.9 0.00 0.00 0.00 34 1015.5
20260502222547 18 219 1.6 9.7 0.00 0.00 0.00 35 1015.5
20260502222043 18 231 8.0 16.1 0.00 0.00 0.00 35 1015.5
20260502221539 18 310 6.4 6.4 0.00 0.00 0.00 35 1015.4
20260502221036 19 262 9.7 17.7 0.00 0.00 0.00 34 1015.5
20260502220532 19 277 6.4 9.7 0.00 0.00 0.00 34 1015.3
20260502220029 19 250 4.8 6.4 0.00 0.00 0.00 36 1015.3
20260502215526 18 314 1.6 4.8 0.00 0.00 0.00 38 1015.3
20260502215023 18 317 3.2 4.8 0.00 0.00 0.00 40 1015.2
20260502214520 18 284 6.4 12.9 0.00 0.00 0.00 36 1015.3
20260502214017 18 293 6.4 11.3 0.00 0.00 0.00 37 1015.2
20260502213514 19 267 6.4 9.7 0.00 0.00 0.00 37 1015.2
20260502213012 19 234 3.2 16.1 0.00 0.00 0.00 38 1015.2
20260502212510 18 305 6.4 14.5 0.00 0.00 0.00 36 1015.2
20260502212007 18 254 8.0 17.7 0.00 0.00 0.00 38 1015.1
20260502211503 18 233 8.0 12.9 0.00 0.00 0.00 36 1015.1
20260502211001 18 258 6.4 12.9 0.00 0.00 0.00 35 1014.9
20260502210457 19 308 6.4 11.3 0.00 0.00 0.00 37 1014.7
20260502205954 18 285 6.4 17.7 0.00 0.00 0.00 35 1015.1
20260502205450 19 161 8.0 20.9 0.00 0.00 0.00 35 1014.9
20260502204948 20 134 8.0 11.3 0.00 0.00 0.00 38 1014.7
20260502204444 20 296 1.6 6.4 0.00 0.00 0.00 38 1014.9
20260502203943 19 258 4.8 11.3 0.00 0.00 0.00 37 1014.8
20260502203439 19 333 1.6 14.5 0.00 0.00 0.00 36 1015.2
20260502202936 19 249 6.4 9.7 0.00 0.00 0.00 37 1015.0
20260502202433 18 211 6.4 17.7 0.00 0.00 0.00 38 1015.1
20260502201931 18 224 1.6 3.2 0.00 0.00 0.00 37 1015.3
20260502201427 18 249 6.4 14.5 0.00 0.00 0.00 37 1015.0
20260502200924 18 271 6.4 12.9 0.00 0.00 0.00 37 1014.9
20260502200419 18 353 1.6 17.7 0.00 0.00 0.00 38 1015.0
20260502195917 18 212 6.4 9.7 0.00 0.00 0.00 37 1015.1
20260502195414 18 242 1.6 22.5 0.00 0.00 0.00 37 1014.9
20260502194910 18 333 0.0 14.5 0.00 0.00 0.00 36 1015.4
20260502194407 17 214 1.6 9.7 0.00 0.00 0.00 35 1015.1
20260502193903 18 192 14.5 17.7 0.00 0.00 0.00 34 1015.5
20260502193400 18 237 4.8 9.7 0.00 0.00 0.00 37 1014.8
20260502192855 18 148 1.6 12.9 0.00 0.00 0.00 35 1015.0
20260502192353 18 199 4.8 20.9 0.00 0.00 0.00 33 1015.0
20260502191850 18 131 4.8 12.9 0.00 0.00 0.00 37 1015.1
20260502191348 18 150 6.4 20.9 0.00 0.00 0.00 34 1015.1
20260502190845 18 277 9.7 12.9 0.00 0.00 0.00 35 1015.0
20260502190342 18 256 3.2 6.4 0.00 0.00 0.00 39 1015.0
20260502185838 18 228 9.7 14.5 0.00 0.00 0.00 38 1014.8